This is the latest recevied weather packets stored in our database for station/object KM4CNW. If no packets are shown the sender has not sent any weather packets the latest 10 day(s).
| Time | Temp. | Humidity | Pressure | Rain* | Wind** | Luminosity | Snow |
|---|---|---|---|---|---|---|---|
| 1777734558 | 12.78° C | 61% | 1008.7 hPa | 0 mm | - | 60 W/m² | - |
| 1777734254 | 12.78° C | 64% | 1008.8 hPa | 0 mm | - | 65 W/m² | - |
| 1777733951 | 12.78° C | 61% | 1008.6 hPa | 0 mm | - | 55 W/m² | - |
| 1777733647 | 12.78° C | 64% | 1008.2 hPa | 0 mm | - | 71 W/m² | - |
| 1777733344 | 13.33° C | 64% | 1008.4 hPa | 0 mm | - | 70 W/m² | - |
| 1777733041 | 13.33° C | 66% | 1008 hPa | 0 mm | - | 92 W/m² | - |
| 1777732737 | 13.33° C | 66% | 1008.1 hPa | 0 mm | - | 91 W/m² | - |
| 1777732434 | 12.78° C | 68% | 1008 hPa | 0 mm | - | 109 W/m² | - |
| 1777732132 | 12.78° C | 65% | 1008.1 hPa | 0 mm | - | 141 W/m² | - |
| 1777731828 | 12.78° C | 67% | 1007.9 hPa | 0 mm | - | 123 W/m² | - |
| 1777731525 | 12.78° C | 67% | 1008.3 hPa | 0 mm | - | 127 W/m² | - |
| 1777731223 | 12.78° C | 69% | 1008 hPa | 0 mm | - | 146 W/m² | - |
| 1777730920 | 12.78° C | 66% | 1008.1 hPa | 0 mm | - | 62 W/m² | - |
| 1777730618 | 12.78° C | 67% | 1007.9 hPa | 0 mm | - | 69 W/m² | - |
| 1777730314 | 12.78° C | 68% | 1008 hPa | 0 mm | - | 63 W/m² | - |
| 1777730011 | 12.78° C | 69% | 1008.1 hPa | 0 mm | - | 51 W/m² | - |
| 1777729707 | 12.78° C | 66% | 1008.4 hPa | 0 mm | - | 72 W/m² | - |
| 1777729404 | 12.78° C | 68% | 1008 hPa | 0 mm | - | 77 W/m² | - |
| 1777729100 | 12.78° C | 69% | 1007.9 hPa | 0 mm | - | 68 W/m² | - |
| 1777728797 | 12.78° C | 71% | 1007.9 hPa | 0 mm | - | 60 W/m² | - |
| 1777728494 | 12.78° C | 71% | 1007.9 hPa | 0 mm | - | 60 W/m² | - |
| 1777728192 | 12.22° C | 72% | 1007.9 hPa | 0 mm | - | 56 W/m² | - |
| 1777727889 | 12.22° C | 71% | 1007.9 hPa | 0 mm | - | 46 W/m² | - |
| 1777727585 | 12.22° C | 72% | 1007.7 hPa | 0 mm | - | 45 W/m² | - |
| 1777727283 | 12.22° C | 72% | 1007.5 hPa | 0 mm | - | 38 W/m² | - |
* Rain latest hour (hover to see other rain measurements)
** Current wind speed in m/s (hover to see current wind gust speed)